Weather History for Indianapolis, IN

Change the Weather History Date:

Monday, February 11, 2013

  Actual Average Record
Temperature  
Mean Temperature 41 °F 31 °F  
Max Temperature 51 °F 39 °F 75 °F (1999)
Min Temperature 31 °F 23 °F -9 °F (1885)
Degree Days  
Heating Degree Days 24 34  
Month to date heating degree days 385 387  
Since 1 July heating degree days 3449 3608  
Cooling Degree Days 0 0  
Month to date cooling degree days 0 0  
Year to date cooling degree days 0 0  
Moisture  
Dew Point 31 °F    
Average Humidity 74    
Maximum Humidity 93    
Minimum Humidity 54    
Precipitation  
Precipitation 0.00 in 0.08 in 1.87 in (2009)
Month to date precipitation 0.30 0.90  
Year to date precipitation 5.81 3.56  
Snow  
Snow 0.00 in 0.20 in 4.60 in (2003)
Month to date snowfall 1.5 2.9  
Since 1 July snowfall 18.9 19.5  
Snow Depth 0.00 in    
Sea Level Pressure  
Sea Level Pressure 29.88 in    
Wind  
Wind Speed 19 mph (WSW)    
Max Wind Speed 40 mph    
Max Gust Speed 45 mph    
Visibility 10 miles    
Events      
T = Trace of Precipitation, MM = Missing Value Source: NWS Daily Summary

Daily Weather History Graph

Daily Weather History Graph

Search for Another Location

Airport:

Trip Planner

Search our weather history database for the weather conditions in past years. The results will help you decide how hot, cold, wet, or windy it might be!

Date:

Astronomy

Feb. 11, 2013 Rise Set
Actual Time 7:42 AM EST 6:17 PM EST
Civil Twilight 7:14 AM EST 6:45 PM EST
Nautical Twilight 6:42 AM EST 7:16 PM EST
Astronomical Twilight 6:11 AM EST 7:48 PM EST
Moon 8:06 AM EST (2/11) 8:12 PM EST (2/11)
Length of Visible Light 11h 30m
Length of Day
10h 35m
Waxing Crescent, 3% of the Moon is Illuminated
Feb 11
Waxing Crescent
Feb 17
First Quarter
Feb 25
Full
Mar 4
Last Quarter
Mar 11
New

Hourly Weather History & Observations

Time (EST) Temp. Windchill Dew Point Humidity Pressure Visibility Wind Dir Wind Speed Gust Speed Precip Events Conditions
12:54 AM 51.1 °F - 48.0 °F 89% 29.70 in 10.0 mi SSW 17.3 mph 24.2 mph N/A   Overcast
1:54 AM 51.1 °F - 46.9 °F 86% 29.70 in 10.0 mi SW 19.6 mph 29.9 mph N/A   Mostly Cloudy
2:05 AM 51.8 °F - 46.4 °F 82% 29.70 in 10.0 mi SW 23.0 mph 29.9 mph N/A   Scattered Clouds
2:54 AM 50.0 °F - 44.1 °F 80% 29.70 in 10.0 mi SW 19.6 mph - N/A   Partly Cloudy
3:54 AM 48.9 °F - 39.9 °F 71% 29.71 in 10.0 mi SW 18.4 mph 32.2 mph N/A   Partly Cloudy
4:54 AM 46.0 °F 37.6 °F 33.1 °F 61% 29.73 in 10.0 mi WSW 24.2 mph 35.7 mph N/A   Partly Cloudy
5:54 AM 42.1 °F 33.9 °F 33.1 °F 70% 29.77 in 10.0 mi West 17.3 mph 26.5 mph N/A   Mostly Cloudy
6:54 AM 39.9 °F 29.0 °F 30.0 °F 68% 29.80 in 10.0 mi WSW 26.5 mph 34.5 mph N/A   Mostly Cloudy
7:54 AM 37.0 °F 26.4 °F 27.0 °F 67% 29.84 in 10.0 mi West 20.7 mph 29.9 mph N/A   Mostly Cloudy
8:54 AM 37.0 °F 26.7 °F 27.0 °F 67% 29.86 in 10.0 mi WSW 19.6 mph 28.8 mph N/A   Mostly Cloudy
9:54 AM 37.0 °F 25.1 °F 28.0 °F 70% 29.88 in 10.0 mi WSW 26.5 mph 34.5 mph N/A   Overcast
10:54 AM 37.0 °F 25.9 °F 25.0 °F 62% 29.91 in 10.0 mi WSW 23.0 mph 34.5 mph N/A   Overcast
11:54 AM 37.9 °F 27.1 °F 27.0 °F 65% 29.92 in 10.0 mi WSW 23.0 mph 31.1 mph N/A   Overcast
12:54 PM 39.0 °F 28.8 °F 28.0 °F 65% 29.92 in 10.0 mi WSW 21.9 mph 31.1 mph N/A   Mostly Cloudy
1:54 PM 39.0 °F 27.6 °F 27.0 °F 62% 29.93 in 10.0 mi West 27.6 mph 35.7 mph N/A   Mostly Cloudy
2:54 PM 39.0 °F 28.0 °F 27.0 °F 62% 29.94 in 10.0 mi West 25.3 mph 34.5 mph N/A   Mostly Cloudy
3:54 PM 39.0 °F 28.3 °F 25.0 °F 57% 29.97 in 10.0 mi West 24.2 mph 35.7 mph N/A   Mostly Cloudy
4:54 PM 39.0 °F 29.3 °F 27.0 °F 62% 29.97 in 10.0 mi West 19.6 mph 26.5 mph N/A   Mostly Cloudy
5:54 PM 39.9 °F 30.5 °F 28.0 °F 63% 29.98 in 10.0 mi West 19.6 mph 23.0 mph N/A   Mostly Cloudy
6:54 PM 37.9 °F 28.9 °F 28.0 °F 68% 30.00 in 10.0 mi West 16.1 mph - N/A   Mostly Cloudy
7:54 PM 36.0 °F 28.5 °F 27.0 °F 70% 30.02 in 10.0 mi West 10.4 mph - N/A   Scattered Clouds
8:54 PM 34.0 °F 26.0 °F 27.0 °F 75% 30.04 in 10.0 mi West 10.4 mph - N/A   Partly Cloudy
9:54 PM 32.0 °F 24.2 °F 27.0 °F 82% 30.04 in 10.0 mi West 9.2 mph - N/A   Clear
10:54 PM 33.1 °F 24.9 °F 27.0 °F 78% 30.05 in 10.0 mi West 10.4 mph - N/A   Clear
11:54 PM 30.9 °F 22.8 °F 26.1 °F 82% 30.06 in 10.0 mi West 9.2 mph - N/A   Clear